Oceanside, CA

6:03 AM PST on January 20, 2018 (GMT -0800)
Oceanside Municipal

Weather History for KOKB - November, 2013

Change the Weather History Date:

Tuesday, November 19, 2013

  Actual Average Record
Temperature  
Mean Temperature 62 °F 56 °F  
Max Temperature 67 °F 69 °F 83 °F (2003)
Min Temperature 57 °F 43 °F 34 °F (2000)
Degree Days  
Heating Degree Days 3 9  
Month to date heating degree days 101 138  
Since 1 July heating degree days 215 240  
Cooling Degree Days 0 0  
Month to date cooling degree days 5 0  
Year to date cooling degree days 535 416  
Growing Degree Days 10 (Base 50)    
Moisture  
Dew Point 52 °F    
Average Humidity 68    
Maximum Humidity 80    
Minimum Humidity 56    
Precipitation  
Precipitation 0.00 in 0.03 in 0.00 in (2018)
Month to date precipitation 0.00 0.72  
Year to date precipitation 2.76 11.20  
Since 1 July precipitation 0.44  
Snow  
Snow 0.00 in - - ()
Month to date snowfall 0.0  
Year to date snowfall 0.0  
Snow Depth 0.00 in    
Sea Level Pressure  
Sea Level Pressure 30.01 in    
Wind  
Wind Speed 3 mph (West)    
Max Wind Speed 13 mph    
Max Gust Speed 16 mph    
Visibility 10 miles    
Events      
T = Trace of Precipitation, MM = Missing Value Source: NWS Daily Summary

Daily Weather History Graph

Daily Weather History Graph

Search for Another Location

Airport or City:

Trip Planner

Search our weather history database for the weather conditions in past years. The results will help you decide how hot, cold, wet, or windy it might be!

Date:

Astronomy

Nov. 19, 2013 Rise Set
Actual Time 6:24 AM PST 4:45 PM PST
Civil Twilight 5:57 AM PST 5:11 PM PST
Nautical Twilight 5:27 AM PST 5:41 PM PST
Astronomical Twilight 4:58 AM PST 6:11 PM PST
Moon 6:40 PM PST (11/19) 8:06 AM PST (11/19)
Length of Visible Light 11h 13m
Length of Day
10h 20m
Waning Gibbous, 95% of the Moon is Illuminated
Nov 19
Waning Gibbous
Nov 25
Last Quarter
Dec 2
New
Dec 9
First Quarter
Dec 17
Full

Hourly Weather History & Observations

Time (PST) Temp. Dew Point Humidity Pressure Visibility Wind Dir Wind Speed Gust Speed Precip Events Conditions
12:52 AM 59.0 °F 52.0 °F 78% 30.07 in 10.0 mi Calm Calm - N/A   Overcast
1:52 AM 59.0 °F 52.0 °F 78% 30.06 in 10.0 mi Calm Calm - N/A   Overcast
2:52 AM 57.9 °F 51.1 °F 78% 30.03 in 10.0 mi Calm Calm - N/A   Overcast
3:52 AM 57.0 °F 51.1 °F 81% 30.03 in 10.0 mi Calm Calm - N/A   Overcast
4:52 AM 57.9 °F 51.1 °F 78% 30.04 in 10.0 mi Calm Calm - N/A   Overcast
5:52 AM 57.9 °F 51.1 °F 78% 30.04 in 10.0 mi Calm Calm - N/A   Overcast
6:52 AM 57.9 °F 52.0 °F 81% 30.04 in 9.0 mi Calm Calm - N/A   Overcast
7:52 AM 61.0 °F 54.0 °F 78% 30.05 in 10.0 mi WNW 3.5 mph - N/A   Overcast
8:52 AM 62.1 °F 53.1 °F 72% 30.07 in 10.0 mi WNW 6.9 mph - N/A   Overcast
9:52 AM 64.9 °F 51.1 °F 61% 30.06 in 10.0 mi Variable 3.5 mph - N/A   Overcast
10:03 AM 64.4 °F 50.0 °F 59% 30.05 in 10.0 mi West 5.8 mph - N/A   Overcast
10:41 AM 66.2 °F 51.8 °F 60% 30.06 in 10.0 mi West 8.1 mph - N/A   Overcast
10:52 AM 66.0 °F 51.1 °F 59% 30.05 in 10.0 mi WSW 8.1 mph - N/A   Overcast
11:52 AM 64.9 °F 51.1 °F 61% 30.02 in 10.0 mi West 5.8 mph - N/A   Partly Cloudy
12:52 PM 64.9 °F 52.0 °F 63% 29.99 in 10.0 mi WSW 6.9 mph - N/A   Clear
1:52 PM 66.0 °F 50.0 °F 56% 29.98 in 10.0 mi West 8.1 mph - N/A   Clear
2:52 PM 64.9 °F 51.1 °F 61% 29.96 in 10.0 mi West 6.9 mph - N/A   Clear
3:52 PM 64.0 °F 52.0 °F 65% 29.96 in 10.0 mi West 5.8 mph - N/A   Clear
4:52 PM 61.0 °F 52.0 °F 72% 29.97 in 10.0 mi WNW 5.8 mph - N/A   Clear
5:52 PM 61.0 °F 53.1 °F 75% 29.96 in 10.0 mi Calm Calm - N/A   Clear
6:52 PM 60.1 °F 53.1 °F 78% 29.97 in 10.0 mi Calm Calm - N/A   Partly Cloudy
7:52 PM 57.9 °F 52.0 °F 81% 29.96 in 10.0 mi Calm Calm - N/A   Mostly Cloudy
8:23 PM 57.2 °F 51.8 °F 82% 29.98 in 10.0 mi Calm Calm - N/A   Scattered Clouds
8:52 PM 55.9 °F 51.1 °F 84% 29.99 in 10.0 mi Calm Calm - N/A   Clear
9:36 PM 55.4 °F 50.0 °F 82% 29.99 in 10.0 mi NNE 3.5 mph - N/A   Mostly Cloudy
9:52 PM 57.0 °F 52.0 °F 83% 29.99 in 10.0 mi Calm Calm - N/A   Overcast
10:52 PM 55.9 °F 52.0 °F 87% 29.99 in 10.0 mi Calm Calm - N/A   Scattered Clouds
11:52 PM 57.0 °F 52.0 °F 83% 29.97 in 10.0 mi Calm Calm - N/A   Overcast